H1 CPF 2 NER 2024 8 4 9 217 01 glonass147 H2 2311401 9147 57517 2024 8 4 0 0 0 2024 8 7 23 45 0 900 1 1 0 0 0 1 H9 10 0 60526 0.00000 0 -20379430.060 7775720.295 13222260.167 10 0 60526 900.00000 0 -18915531.131 6746217.388 15730096.555 10 0 60526 1800.00000 0 -17320447.298 5413506.188 17932456.179 10 0 60526 2700.00000 0 -15657839.915 3784746.754 19786694.053 10 0 60526 3600.00000 0 -13990584.981 1879875.028 21256947.154 10 0 60526 4500.00000 0 -12378178.324 -268977.692 22314817.958 10 0 60526 5400.00000 0 -10874304.884 -2618577.444 22939912.335 10 0 60526 6300.00000 0 -9524672.700 -5116147.284 23120222.650 10 0 60526 7200.00000 0 -8365200.735 -7701329.609 22852349.848 10 0 60526 8100.00000 0 -7420634.659 -10308470.397 22141561.209 10 0 60526 9000.00000 0 -6703646.777 -12869131.628 21001683.357 10 0 60526 9900.00000 0 -6214456.211 -15314728.801 19454832.892 10 0 60526 10800.00000 0 -5940983.927 -17579185.487 17530989.812 10 0 60526 11700.00000 0 -5859535.155 -19601496.036 15267421.536 10 0 60526 12600.00000 0 -5935979.988 -21328091.216 12707968.014 10 0 60526 13500.00000 0 -6127382.358 -22714909.424 9902200.875 10 0 60526 14400.00000 0 -6384008.921 -23729088.030 6904471.894 10 0 60526 15300.00000 0 -6651633.507 -24350204.790 3772868.345 10 0 60526 16200.00000 0 -6874040.246 -24571017.667 568094.639 10 0 60526 17100.00000 0 -6995619.981 -24397672.058 -2647698.721 10 0 60526 18000.00000 0 -6963950.308 -23849366.433 -5812116.486 10 0 60526 18900.00000 0 -6732250.007 -22957489.957 -8863727.237 10 0 60526 19800.00000 0 -6261603.539 -21764267.748 -11743255.716 10 0 60526 20700.00000 0 -5522860.712 -20320970.096 -14394735.547 10 0 60526 21600.00000 0 -4498129.990 -18685760.326 -16766599.710 10 0 60526 22500.00000 0 -3181800.855 -16921271.250 -18812687.284 10 0 60526 23400.00000 0 -1581050.288 -15092011.637 -20493146.488 10 0 60526 24300.00000 0 284189.928 -13261711.335 -21775216.158 10 0 60526 25200.00000 0 2381805.812 -11490716.276 -22633870.137 10 0 60526 26100.00000 0 4668591.633 -9833542.624 -23052311.634 10 0 60526 27000.00000 0 7091814.402 -8336692.560 -23022307.627 10 0 60526 27900.00000 0 9591188.543 -7036823.310 -22544356.328 10 0 60526 28800.00000 0 12101179.438 -5959346.135 -21627684.008 10 0 60526 29700.00000 0 14553540.529 -5117513.963 -20290070.750 10 0 60526 30600.00000 0 16879978.536 -4512035.648 -18557508.014 10 0 60526 31500.00000 0 19014835.635 -4131232.693 -16463694.275 10 0 60526 32400.00000 0 20897676.395 -3951731.166 -14049378.235 10 0 60526 33300.00000 0 22475671.060 -3939658.847 -11361562.291 10 0 60526 34200.00000 0 23705675.061 -4052296.012 -8452581.907 10 0 60526 35100.00000 0 24555917.383 -4240108.928 -5379079.205 10 0 60526 36000.00000 0 25007226.911 -4449078.688 -2200891.420 10 0 60526 36900.00000 0 25053745.463 -4623225.376 1020123.251 10 0 60526 37800.00000 0 24703098.081 -4707219.287 4221298.517 10 0 60526 38700.00000 0 23976014.234 -4648967.254 7340386.945 10 0 60526 39600.00000 0 22905416.979 -4402063.458 10316776.126 10 0 60526 40500.00000 0 21535019.619 -3928000.076 13092669.617 10 0 60526 41400.00000 0 19917490.085 -3198043.675 15614209.301 10 0 60526 42300.00000 0 18112261.337 -2194697.747 17832517.189 10 0 60526 43200.00000 0 16183080.493 -912689.536 19704636.823 10 0 60526 44100.00000 0 14195399.902 640560.411 21194356.678 10 0 60526 45000.00000 0 12213719.425 2445005.727 22272900.591 10 0 60526 45900.00000 0 10298990.506 4468576.021 22919473.057 10 0 60526 46800.00000 0 8506189.554 6668288.130 23121650.113 10 0 60526 47700.00000 0 6882160.515 8991820.919 22875609.416 10 0 60526 48600.00000 0 5463815.020 11379488.778 22186196.085 10 0 60526 49500.00000 0 4276763.370 13766532.693 21066823.733 10 0 60526 50400.00000 0 3334431.728 16085634.760 19539212.933 10 0 60526 51300.00000 0 2637700.755 18269552.902 17632972.140 10 0 60526 52200.00000 0 2175079.423 20253767.572 15385028.774 10 0 60526 53100.00000 0 1923405.727 21979031.504 12838920.791 10 0 60526 54000.00000 0 1849044.223 23393717.406 10043961.596 10 0 60526 54900.00000 0 1909529.794 24455866.496 7054293.482 10 0 60526 55800.00000 0 2055588.404 25134852.833 3927847.037 10 0 60526 56700.00000 0 2233449.811 25412594.040 725225.868 10 0 60526 57600.00000 0 2387354.823 25284257.581 -2491462.401 10 0 60526 58500.00000 0 2462151.267 24758432.588 -5659806.538 10 0 60526 59400.00000 0 2405868.876 23856759.396 -8718300.459 10 0 60526 60300.00000 0 2172163.860 22613031.577 -11607536.867 10 0 60526 61200.00000 0 1722529.156 21071807.352 -14271362.419 10 0 60526 62100.00000 0 1028175.938 19286587.863 -16657971.729 10 0 60526 63000.00000 0 71505.604 17317638.034 -18720918.657 10 0 60526 63900.00000 0 -1152891.466 15229540.794 -20420024.829 10 0 60526 64800.00000 0 -2637754.268 13088586.740 -21722167.426 10 0 60526 65700.00000 0 -4363208.891 10960108.220 -22601930.565 10 0 60526 66600.00000 0 -6297365.097 8905869.254 -23042107.227 10 0 60526 67500.00000 0 -8397428.624 6981620.379 -23034041.615 10 0 60526 68400.00000 0 -10611284.299 5234920.591 -22577804.854 10 0 60526 69300.00000 0 -12879485.031 3703317.435 -21682200.149 10 0 60526 70200.00000 0 -15137564.550 2412961.194 -20364596.817 10 0 60526 71100.00000 0 -17318577.813 1377710.917 -18650595.935 10 0 60526 72000.00000 0 -19355763.090 598769.264 -16573533.685 10 0 60526 72900.00000 0 -21185214.278 64860.805 -14173831.762 10 0 60526 73800.00000 0 -22748451.286 -247054.673 -11498207.346 10 0 60526 74700.00000 0 -23994780.287 -370565.047 -8598758.153 10 0 60526 75600.00000 0 -24883344.379 -348137.608 -5531940.773 10 0 60526 76500.00000 0 -25384778.211 -229071.665 -2357462.788 10 0 60526 77400.00000 0 -25482396.848 -67160.169 862888.839 10 0 60526 78300.00000 0 -25172869.034 81839.113 4066459.288 10 0 60526 79200.00000 0 -24466346.954 162814.279 7190952.715 10 0 60526 80100.00000 0 -23386047.729 123879.983 10175649.482 10 0 60526 81000.00000 0 -21967305.214 -81182.165 12962589.365 10 0 60526 81900.00000 0 -20256132.938 -490727.479 15497697.269 10 0 60526 82800.00000 0 -18307359.565 -1133389.640 17731829.444 10 0 60526 83700.00000 0 -16182415.900 -2026638.281 19621720.213 10 0 60526 84600.00000 0 -13946866.620 -3175813.543 21130811.523 10 0 60526 85500.00000 0 -11667790.117 -4573678.096 22229950.210 10 0 60527 0.00000 0 -9411115.715 -6200505.235 22897940.627 10 0 60527 900.00000 0 -7239027.316 -8024700.364 23121943.497 10 0 60527 1800.00000 0 -5207543.436 -10003927.935 22897713.647 10 0 60527 2700.00000 0 -3364368.827 -12086700.238 22229674.235 10 0 60527 3600.00000 0 -1747108.345 -14214360.459 21130825.756 10 0 60527 4500.00000 0 -381914.370 -16323379.224 19622492.359 10 0 60527 5400.00000 0 717377.446 -18347869.996 17733910.284 10 0 60527 6300.00000 0 1549589.696 -20222219.798 15501665.999 10 0 60527 7200.00000 0 2126009.058 -21883726.801 12968994.236 10 0 60527 8100.00000 0 2469665.599 -23275135.807 10184948.683 10 0 60527 9000.00000 0 2614116.438 -24346966.612 7203460.392 10 0 60527 9900.00000 0 2601785.224 -25059538.393 4082301.278 10 0 60527 10800.00000 0 2481927.430 -25384605.595 881971.936 10 0 60527 11700.00000 0 2308307.207 -25306536.586 -2335465.296 10 0 60527 12600.00000 0 2136683.813 -24822985.168 -5507585.792 10 0 60527 13500.00000 0 2022213.807 -23945025.991 -8572811.562 10 0 60527 14400.00000 0 2016879.049 -22696747.247 -11471606.181 10 0 60527 15300.00000 0 2167049.669 -21114316.672 -14147632.358 10 0 60527 16200.00000 0 2511285.765 -19244559.007 -16548849.393 10 0 60527 17100.00000 0 3078471.718 -17143103.546 -18628528.926 10 0 60527 18000.00000 0 3886363.207 -14872178.508 -20346168.833 10 0 60527 18900.00000 0 4940609.715 -12498143.888 -21668287.219 10 0 60527 19800.00000 0 6234295.442 -10088865.367 -22569080.694 10 0 60527 20700.00000 0 7748019.697 -7711038.693 -23030933.808 10 0 60527 21600.00000 0 9450515.187 -5427576.015 -23044769.324 10 0 60527 22500.00000 0 11299779.907 -3295163.076 -22610232.138 10 0 60527 23400.00000 0 13244676.579 -1362089.176 -21735702.771 10 0 60527 24300.00000 0 15226933.754 333559.713 -20438139.697 10 0 60527 25200.00000 0 17183465.493 1765269.438 -18742753.066 10 0 60527 26100.00000 0 19048912.814 2918970.951 -16682515.760 10 0 60527 27000.00000 0 20758300.418 3793382.488 -14297520.971 10 0 60527 27900.00000 0 22249696.982 4399807.183 -11634198.672 10 0 60527 28800.00000 0 23466766.875 4761395.797 -8744406.371 10 0 60527 29700.00000 0 24361105.494 4911906.994 -5684412.221 10 0 60527 30600.00000 0 24894259.504 4894019.027 -2513790.878 10 0 60527 31500.00000 0 25039346.489 4757265.848 705745.453 10 0 60527 32400.00000 0 24782205.656 4555686.599 3911557.083 10 0 60527 33300.00000 0 24122031.190 4345289.629 7041303.406 10 0 60527 34200.00000 0 23071461.899 4181439.803 10034161.078 10 0 60527 35100.00000 0 21656124.008 4116280.943 12832009.383 10 0 60527 36000.00000 0 19913646.996 4196303.313 15380559.239 10 0 60527 36900.00000 0 17892194.632 4460159.533 17630403.764 10 0 60527 37800.00000 0 15648573.505 4936821.360 19537970.312 10 0 60527 38700.00000 0 13245998.694 5644155.029 21066356.164 10 0 60527 39600.00000 0 10751610.186 6587974.913 22186032.609 10 0 60527 40500.00000 0 8233843.413 7761615.029 22875404.983 10 0 60527 41400.00000 0 5759762.809 9146036.191 23121219.071 10 0 60527 42300.00000 0 3392468.294 10710464.316 22918807.199 10 0 60527 43200.00000 0 1188681.079 12413533.398 22272170.287 10 0 60527 44100.00000 0 -803392.585 14204885.933 21193894.972 10 0 60527 45000.00000 0 -2545832.731 16027164.723 19704907.809 10 0 60527 45900.00000 0 -4012340.268 17818313.912 17834071.259 10 0 60527 46800.00000 0 -5189081.049 19514094.335 15617628.935 10 0 60527 47700.00000 0 -6075005.727 21050709.277 13098510.172 10 0 60527 48600.00000 0 -6681633.294 22367431.957 10325506.562 10 0 60527 49500.00000 0 -7032308.309 23409125.733 7352335.384 10 0 60527 50400.00000 0 -7160963.530 24128552.035 4236607.234 10 0 60527 51300.00000 0 -7110440.319 24488369.563 1038716.985 10 0 60527 52200.00000 0 -6930437.609 24462740.734 -2179321.062 10 0 60527 53100.00000 0 -6675175.956 24038477.413 -5355071.633 10 0 60527 54000.00000 0 -6400875.266 23215677.028 -8426887.511 10 0 60527 54900.00000 0 -6163152.838 22007821.222 -11335105.718 10 0 60527 55800.00000 0 -6014451.955 20441331.709 -14023207.420 10 0 60527 56700.00000 0 -6001610.163 18554600.611 -16438918.816 10 0 60527 57600.00000 0 -6163670.718 16396534.664 -18535231.315 10 0 60527 58500.00000 0 -6530030.566 14024673.063 -20271320.807 10 0 60527 59400.00000 0 -7119004.251 11502956.674 -21613347.848 10 0 60527 60300.00000 0 -7936865.640 8899240.989 -22535122.836 10 0 60527 61200.00000 0 -8977409.352 6282656.023 -23018622.910 10 0 60527 62100.00000 0 -10222051.888 3720922.878 -23054350.124 10 0 60527 63000.00000 0 -11640469.714 1277738.496 -22641523.526 10 0 60527 63900.00000 0 -13191748.819 -989662.533 -21788100.944 10 0 60527 64800.00000 0 -14825998.626 -3032667.649 -20510629.575 10 0 60527 65700.00000 0 -16486363.305 -4813077.644 -18833927.774 10 0 60527 66600.00000 0 -18111346.507 -6304455.143 -16790603.837 10 0 60527 67500.00000 0 -19637352.016 -7492974.418 -14420420.797 10 0 60527 68400.00000 0 -21001333.346 -8377737.743 -11769519.465 10 0 60527 69300.00000 0 -22143440.375 -8970546.044 -8889514.947 10 0 60527 70200.00000 0 -23009551.018 -9295134.797 -5836484.580 10 0 60527 71100.00000 0 -23553580.611 -9385908.919 -2669867.601 10 0 60527 72000.00000 0 -23739471.035 -9286231.685 548701.152 10 0 60527 72900.00000 0 -23542775.264 -9046341.727 3756599.807 10 0 60527 73800.00000 0 -22951770.236 -8720987.937 6891445.739 10 0 60527 74700.00000 0 -21968051.160 -8366883.904 9892314.687 10 0 60527 75600.00000 0 -20606582.449 -8040090.958 12700928.206 10 0 60527 76500.00000 0 -18895203.575 -7793441.529 15262785.910 10 0 60527 77400.00000 0 -16873611.132 -7674112.397 17528220.305 10 0 60527 78300.00000 0 -14591860.344 -7721450.590 19453354.058 10 0 60527 79200.00000 0 -12108449.113 -7965143.565 21000941.741 10 0 60527 80100.00000 0 -9488064.870 -8423810.438 22141080.692 10 0 60527 81000.00000 0 -6799088.015 -9104073.044 22851778.379 10 0 60527 81900.00000 0 -4110955.326 -10000145.387 23119366.570 10 0 60527 82800.00000 0 -1491492.072 -11093958.331 22938755.435 10 0 60527 83700.00000 0 995677.670 -12355814.155 22313523.730 10 0 60527 84600.00000 0 3293536.564 -13745543.738 21255844.017 10 0 60527 85500.00000 0 5353797.302 -15214118.352 19786244.762 10 0 60528 0.00000 0 7138657.136 -16705649.255 17933214.070 10 0 60528 900.00000 0 8622113.392 -18159693.158 15732651.349 10 0 60528 1800.00000 0 9790784.477 -19513766.096 13227179.402 10 0 60528 2700.00000 0 10644206.696 -20705964.138 10465326.145 10 0 60528 3600.00000 0 11194593.119 -21677580.004 7500593.238 10 0 60528 4500.00000 0 11466066.334 -22375607.284 4390427.838 10 0 60528 5400.00000 0 11493397.622 -22755027.326 1195116.743 10 0 60528 6300.00000 0 11320305.773 -22780782.678 -2023376.317 10 0 60528 7200.00000 0 10997387.254 -22429353.700 -5202608.097 10 0 60528 8100.00000 0 10579765.004 -21689871.232 -8280864.930 10 0 60528 9000.00000 0 10124555.086 -20564717.409 -11198360.113 10 0 60528 9900.00000 0 9688258.298 -19069588.010 -13898396.121 10 0 60528 10800.00000 0 9324187.160 -17233012.211 -16328468.871 10 0 60528 11700.00000 0 9080037.418 -15095348.312 -18441292.265 10 0 60528 12600.00000 0 8995707.231 -12707296.045 -20195722.767 10 0 60528 13500.00000 0 9101456.954 -10127986.337 -21557565.684 10 0 60528 14400.00000 0 9416488.117 -7422727.177 -22500247.183 10 0 60528 15300.00000 0 9948002.667 -4660498.738 -23005338.592 10 0 60528 16200.00000 0 10690783.295 -1911301.484 -23062922.423 10 0 60528 17100.00000 0 11627313.758 756532.757 -22671792.616 10 0 60528 18000.00000 0 12728435.265 3278955.073 -21839484.610 10 0 60528 18900.00000 0 13954512.315 5598630.426 -20582134.201 10 0 60528 19800.00000 0 15257059.716 7667084.210 -18924167.406 10 0 60528 20700.00000 0 16580762.812 9446475.070 -16897826.974 10 0 60528 21600.00000 0 17865806.047 10910920.380 -14542544.394 10 0 60528 22500.00000 0 19050411.689 12047319.491 -11904169.501 10 0 60528 23400.00000 0 20073481.266 12855641.114 -9034072.759 10 0 60528 24300.00000 0 20877227.740 13348663.903 -5988138.069 10 0 60528 25200.00000 0 21409686.596 13551182.539 -2825666.277 10 0 60528 26100.00000 0 21626999.063 13498714.365 391788.354 10 0 60528 27000.00000 0 21495370.425 13235762.872 3601625.121 10 0 60528 27900.00000 0 20992620.193 12813713.181 6741422.770 10 0 60528 28800.00000 0 20109258.448 12288450.100 9750159.425 10 0 60528 29700.00000 0 18849042.893 11717800.989 12569402.056 10 0 60528 30600.00000 0 17228993.282 11158912.648 15144441.877 10 0 60528 31500.00000 0 15278862.885 10665673.881 17425353.423 10 0 60528 32400.00000 0 13040089.511 10286292.888 19367956.994 10 0 60528 33300.00000 0 10564270.234 10061131.634 20934666.457 10 0 60528 34200.00000 0 7911223.726 10020888.038 22095206.843 10 0 60528 35100.00000 0 5146720.818 10185201.813 22827189.026 10 0 60528 36000.00000 0 2339977.290 10561741.813 23116531.609 10 0 60528 36900.00000 0 -438987.679 11145812.468 22957723.015 10 0 60528 37800.00000 0 -3122018.925 11920495.217 22353919.772 10 0 60528 38700.00000 0 -5645409.343 12857318.717 21316879.802 10 0 60528 39600.00000 0 -7952295.008 13917429.723 19866732.423 10 0 60528 40500.00000 0 -9994763.725 15053215.901 18031589.520 10 0 60528 41400.00000 0 -11735591.201 16210313.180 15847005.054 10 0 60528 42300.00000 0 -13149534.211 17329914.313 13355292.774 10 0 60528 43200.00000 0 -14224128.319 18351282.672 10604714.475 10 0 60528 44100.00000 0 -14959958.002 19214366.636 7648553.598 10 0 60528 45000.00000 0 -15370388.719 19862405.415 4544091.198 10 0 60528 45900.00000 0 -15480772.673 20244417.164 1351503.301 10 0 60528 46800.00000 0 -15327161.952 20317464.780 -1867299.638 10 0 60528 47700.00000 0 -14954583.209 20048603.680 -5049869.064 10 0 60528 48600.00000 0 -14414946.564 19416428.852 -8134427.484 10 0 60528 49500.00000 0 -13764676.797 18412154.949 -11061067.001 10 0 60528 50400.00000 0 -13062166.751 17040182.618 -13772913.804 10 0 60528 51300.00000 0 -12365160.498 15318125.619 -16217235.748 10 0 60528 52200.00000 0 -11728176.899 13276295.873 -18346471.252 10 0 60528 53100.00000 0 -11200082.652 10956666.280 -20119159.120 10 0 60528 54000.00000 0 -10821917.735 8411353.071 -21500750.937 10 0 60528 54900.00000 0 -10625065.570 5700679.603 -22464289.883 10 0 60528 55800.00000 0 -10629845.837 2890901.222 -22990942.434 10 0 60528 56700.00000 0 -10844590.071 51685.003 -23070372.223 10 0 60528 57600.00000 0 -11265239.834 -2746551.370 -22700948.397 10 0 60528 58500.00000 0 -11875485.256 -5435331.261 -21889783.965 10 0 60528 59400.00000 0 -12647438.833 -7950729.530 -20652602.886 10 0 60528 60300.00000 0 -13542816.708 -10235793.265 -19013438.021 10 0 60528 61200.00000 0 -14514578.019 -12242672.023 -17004165.369 10 0 60528 62100.00000 0 -15508953.336 -13934368.931 -14663883.346 10 0 60528 63000.00000 0 -16467776.454 -15286039.858 -12038148.993 10 0 60528 63900.00000 0 -17331020.694 -16285786.807 -9178086.092 10 0 60528 64800.00000 0 -18039431.941 -16934913.164 -6139382.903 10 0 60528 65700.00000 0 -18537146.358 -17247631.207 -2981199.557 10 0 60528 66600.00000 0 -18774181.230 -17250235.568 234992.690 10 0 60528 67500.00000 0 -18708692.793 -16979779.095 3446616.831 10 0 60528 68400.00000 0 -18308904.889 -16482308.693 6591215.581 10 0 60528 69300.00000 0 -17554626.415 -15810737.304 9607672.110 10 0 60528 70200.00000 0 -16438293.181 -15022443.490 12437401.490 10 0 60528 71100.00000 0 -14965490.143 -14176701.257 15025489.184 10 0 60528 72000.00000 0 -13154932.052 -13332049.589 17321754.284 10 0 60528 72900.00000 0 -11037903.463 -12543713.138 19281717.071 10 0 60528 73800.00000 0 -8657181.683 -11861182.830 20867452.778 10 0 60528 74700.00000 0 -6065487.708 -11326057.874 22048315.875 10 0 60528 75600.00000 0 -3323529.626 -10970239.206 22801522.025 10 0 60528 76500.00000 0 -497719.483 -10814549.299 23112577.671 10 0 60528 77400.00000 0 2342342.182 -10867835.251 22975550.126 10 0 60528 78300.00000 0 5126510.749 -11126591.765 22393173.973 10 0 60528 79200.00000 0 7786762.523 -11575119.047 21376792.467 10 0 60528 80100.00000 0 10259771.294 -12186208.478 19946135.450 10 0 60528 81000.00000 0 12489291.242 -12922327.151 18128938.142 10 0 60528 81900.00000 0 14428248.917 -13737251.748 15960407.816 10 0 60528 82800.00000 0 16040458.887 -14578083.643 13482548.084 10 0 60528 83700.00000 0 17301893.039 -15387561.239 10743353.066 10 0 60528 84600.00000 0 18201451.729 -16106573.075 7795886.075 10 0 60528 85500.00000 0 18741205.415 -16676766.635 4697259.819 10 0 60529 0.00000 0 18936097.190 -17043143.456 1507537.303 10 0 60529 900.00000 0 18813119.074 -17156531.603 -1711427.635 10 0 60529 1800.00000 0 18409996.500 -16975830.627 -4897183.780 10 0 60529 2700.00000 0 17773436.651 -16469934.521 -7987892.802 10 0 60529 3600.00000 0 16957013.882 -15619250.087 -10923528.594 10 0 60529 4500.00000 0 16018781.370 -14416745.665 -13647043.977 10 0 60529 5400.00000 0 15018709.534 -12868484.460 -16105481.551 10 0 60529 6300.00000 0 14016059.199 -10993618.178 -18251006.884 10 0 60529 7200.00000 0 13066800.383 -8823839.388 -20041843.560 10 0 60529 8100.00000 0 12221185.715 -6402313.612 -21443091.614 10 0 60529 9000.00000 0 11521581.086 -3782134.083 -22427413.105 10 0 60529 9900.00000 0 11000645.346 -1024362.131 -22975571.164 10 0 60529 10800.00000 0 10679936.205 1804266.340 -23076811.653 10 0 60529 11700.00000 0 10569001.556 4633873.742 -22729079.628 10 0 60529 12600.00000 0 10664995.016 7394108.268 -21939065.939 10 0 60529 13500.00000 0 10952832.283 10016835.309 -20722082.574 10 0 60529 14400.00000 0 11405882.065 12438741.033 -19101768.681 10 0 60529 15300.00000 0 11987162.621 14603739.666 -17109632.553 10 0 60529 16200.00000 0 12650993.356 16465084.199 -14784438.153 10 0 60529 17100.00000 0 13345031.500 17987092.480 -12171447.946 10 0 60529 18000.00000 0 14012607.285 19146416.779 -9321536.861 10 0 60529 18900.00000 0 14595258.172 19932804.169 -6290194.951 10 0 60529 19800.00000 0 15035354.049 20349316.639 -3136438.752 10 0 60529 20700.00000 0 15278701.304 20412002.778 78346.626 10 0 60529 21600.00000 0 15277014.610 20149036.234 3291611.149 10 0 60529 22500.00000 0 14990150.914 19599358.788 6440864.843 10 0 60529 23400.00000 0 14388010.418 18810886.903 9464899.207 10 0 60529 24300.00000 0 13452023.659 17838358.956 12304980.545 10 0 60529 25200.00000 0 12176161.615 16740915.356 14905991.507 10 0 60529 26100.00000 0 10567426.084 15579514.640 17217498.414 10 0 60529 27000.00000 0 8645799.690 14414295.096 19194723.916 10 0 60529 27900.00000 0 6443657.562 13301993.153 20799406.685 10 0 60529 28800.00000 0 4004665.280 12293526.867 22000532.358 10 0 60529 29700.00000 0 1382208.883 11431845.286 22774922.729 10 0 60529 30600.00000 0 -1362578.057 10750132.922 23107673.010 10 0 60529 31500.00000 0 -4163108.881 10270443.398 22992429.867 10 0 60529 32400.00000 0 -6949865.456 10002818.210 22431505.907 10 0 60529 33300.00000 0 -9653043.534 9944926.309 21435829.152 10 0 60529 34200.00000 0 -12205213.497 10082238.612 20024728.884 10 0 60529 35100.00000 0 -14543887.656 10388729.424 18225562.070 10 0 60529 36000.00000 0 -16613889.092 10828075.003 16073187.248 10 0 60529 36900.00000 0 -18369425.079 11355298.974 13609295.492 10 0 60529 37800.00000 0 -19775780.129 11918795.723 10881610.568 10 0 60529 38700.00000 0 -20810559.209 12462647.155 7942972.839 10 0 60529 39600.00000 0 -21464429.971 12929135.807 4850323.774 10 0 60529 40500.00000 0 -21741333.499 13261348.850 1663609.897 10 0 60529 41400.00000 0 -21658154.968 13405763.463 -1555373.239 10 0 60529 42300.00000 0 -21243868.007 13314704.420 -4744175.064 10 0 60529 43200.00000 0 -20538188.592 12948569.821 -7840899.044 10 0 60529 44100.00000 0 -19589794.799 12277730.241 -10785403.393 10 0 60529 45000.00000 0 -18454187.046 11284020.029 -13520469.929 10 0 60529 45900.00000 0 -17191278.686 9961756.437 -15992918.182 10 0 60529 46800.00000 0 -15862818.159 8318241.871 -18154642.814 10 0 60529 47700.00000 0 -14529751.193 6373726.236 -19963553.840 10 0 60529 48600.00000 0 -13249634.046 4160828.930 -21384401.076 10 0 60529 49500.00000 0 -12074206.748 1723442.712 -22389466.448 10 0 60529 50400.00000 0 -11047228.602 -884836.515 -22959110.373 10 0 60529 51300.00000 0 -10202667.191 -3602690.013 -23082161.212 10 0 60529 52200.00000 0 -9563317.298 -6363385.336 -22756139.848 10 0 60529 53100.00000 0 -9139908.025 -9097318.938 -21987314.536 10 0 60529 54000.00000 0 -8930735.858 -11734687.006 -20790584.511 10 0 60529 54900.00000 0 -8921839.149 -14208173.590 -19189194.107 10 0 60529 55800.00000 0 -9087706.573 -16455544.080 -17214282.517 10 0 60529 56700.00000 0 -9392489.418 -18422035.834 -14904277.623 10 0 60529 57600.00000 0 -9791666.065 -20062446.092 -12304145.491 10 0 60529 58500.00000 0 -10234087.644 -21342829.841 -9464510.233 10 0 60529 59400.00000 0 -10664317.503 -22241736.743 -6440661.670 10 0 60529 60300.00000 0 -11025164.476 -22750935.691 -3291470.650 10 0 60529 61200.00000 0 -11260301.552 -22875597.281 -78234.028 10 0 60529 62100.00000 0 -11316857.942 -22633927.567 3136527.309 10 0 60529 63000.00000 0 -11147873.705 -22056269.810 6290292.895 10 0 60529 63900.00000 0 -10714512.112 -21183713.486 9321764.824 10 0 60529 64800.00000 0 -9987935.454 -20066270.670 12172062.948 10 0 60529 65700.00000 0 -8950764.538 -18760698.006 14785869.413 10 0 60529 66600.00000 0 -7598059.984 -17328057.146 17112500.047 10 0 60529 67500.00000 0 -5937783.855 -15831117.136 19106882.024 10 0 60529 68400.00000 0 -3990722.099 -14331708.281 20730419.429 10 0 60529 69300.00000 0 -1789870.962 -12888138.523 21951730.796 10 0 60529 70200.00000 0 620687.202 -11552780.093 22747245.497 10 0 60529 71100.00000 0 3187372.214 -10369926.559 23101648.638 10 0 60529 72000.00000 0 5849092.897 -9374008.682 23008167.032 10 0 60529 72900.00000 0 8539550.699 -8588242.262 22468691.790 10 0 60529 73800.00000 0 11189765.550 -8023762.999 21493735.867 10 0 60529 74700.00000 0 13730720.355 -7679283.194 20102227.851 10 0 60529 75600.00000 0 16096015.789 -7541283.478 18321146.020 10 0 60529 76500.00000 0 18224426.613 -7584730.694 16184999.449 10 0 60529 77400.00000 0 20062254.614 -7774291.338 13735165.616 10 0 60529 78300.00000 0 21565381.539 -8065989.421 11019096.535 10 0 60529 79200.00000 0 22700937.444 -8409239.192 8089407.852 10 0 60529 80100.00000 0 23448515.568 -8749167.392 5002867.668 10 0 60529 81000.00000 0 23800883.370 -9029127.510 1819303.852 10 0 60529 81900.00000 0 23764160.116 -9193300.243 -1399549.654 10 0 60529 82800.00000 0 23357453.442 -9189270.378 -4591245.580 10 0 60529 83700.00000 0 22611969.896 -8970471.096 -7693832.230 10 0 60529 84600.00000 0 21569636.395 -8498391.841 -10647055.164 10 0 60529 85500.00000 0 20281290.096 -7744455.621 -13393528.144 99